Location: *
(42.0175°N, 9.4056°E)
Time: 22:18:23
(UTC+00:00)

Okean 1 - Pass Details

Date: 25 August 2019
Orbit: 538 x 556 km, 82.5° (Epoch: 22 September)

Event Time Altitude Azimuth Distance (km) Brightness Sun altitude
Rises 18:40:47 0° 353° (N) 2,704 7.3 -6.6°
Reaches altitude 10° 18:42:57 10° 355° (N) 1,807 6.3 -7.0°
Maximum altitude 18:46:55 76° 81° (E) 561 3.2 -7.7°
Drops below altitude 10° 18:50:52 10° 168° (SSE) 1,796 5.6 -8.3°
Sets 18:53:01 0° 170° (S) 2,686 6.5 -8.7°
